Location: Newark
(35.6799°N, 139.7636°E)
Time: 10:42:28
(UTC+00:00)

Transit 2A - Pass Details

Date: 14 December 2019
Orbit: 601 x 958 km, 66.7° (Epoch: 24 January)

Event Time Altitude Azimuth Distance (km) Brightness Sun altitude
Rises 19:33:12 0° 185° (S) 3,165 9.3 -25.5°
Reaches altitude 10° 19:35:49 10° 176° (S) 2,186 8.5 -25.0°
Maximum altitude 19:40:15 35° 112° (ESE) 1,085 7.3 -24.1°
Drops below altitude 10° 19:44:24 10° 47° (NE) 2,030 8.6 -23.3°
Sets 19:46:44 0° 38° (NE) 2,907 9.3 -22.8°
